星链-5889 (STARLINK-5889 )

导读

STARLINK-5889是美国SpaceX公司星链(Starlink)星座的一颗低轨通信卫星,于2023年3月17日发射入轨。星链项目旨在通过部署近万颗低轨卫星,为全球提供高速低延迟宽带互联网服务,尤其覆盖偏远地区。该卫星采用平板设计,搭载霍尔推进器,具备自主避撞能力,寿命末期将主动离轨再入大气层焚毁,属于星链二代组网的组成部分,服务全球互联网接入与通信覆盖。

Basic Information
目录编号:
55953
目录名称:
STARLINK-5889
国际标识:
2023-037AR
轨道中心:
EARTH
卫星名称:
星链-5889
卫星全名:
星链-5889 (STARLINK-5889 )
卫星状态:
已陨落 最后检测时间 2025-05-31
发射日期:
2023-03-17 UTC
国别 :
美国 (US)
星等 :
--
Orbit Information
数据来源 国际轨道数据
星历时间: 2025-05-31T14:02:27+0800
轨道信息已过期379天
半长轴: 6519.691km
偏心率: 0.0009371
轨道倾角: 69.981°
近地点辐角 261.317°
升交点赤经 236.260°
平近点角 126.993°
近地点: 135.446km
远地点: 147.666km
周期: 87.317分钟
每日圈数: 16.49158
Detailed Information
固有亮度:
5
最大亮度:
2.5
卫星平台:
Starlink v1.5
覆盖范围:
全球
运营商:
太空探索技术公司
运营商所在国:
美国
制造商(研发单位):
太空探索技术公司
制造商所在国:
美国
使用方式:
暂无
Satellite Introduction
星链(Starlink)计划是由太空探索技术公司(SpaceX)提出的一个巨型低轨卫星互联网星座项目,计划在2019年至2024年间在太空搭建由约1.2万颗卫星组成的“星链”网络,其中1584颗将部署在地球上空550千米处的近地轨道,并从2020年开始工作。该卫星仍在工作。